Location: Bourg-d�Oueil
(42.8588°N, 0.4991°E)
Time: 02:42:02
(UTC+00:00)

Cosmos 676 Rocket - Pass Details

Date: 16 June 2021
Orbit: 754 x 784 km, 74.0° (Epoch: 25 July)

Event Time Altitude Azimuth Distance (km) Brightness Sun altitude
Rises 20:07:29 0° 343° (NNW) 3,277 8.3 -5.1°
Reaches altitude 10° 20:09:56 10° 348° (NNW) 2,348 7.4 -5.4°
Maximum altitude 20:15:11 55° 66° (ENE) 937 4.3 -6.2°
Drops below altitude 10° 20:20:24 10° 144° (SE) 2,336 5.9 -6.9°
Enters shadow 20:20:59 - 146° (SE) 2,553 6.1 -7.0°
